User: anonymous   Login
Location: Unspecified
(43.4680°N, 87.1740°E)
Time: 12:16:31
(UTC+00:00)
Language:

METEOR-M - Orbit

View from above orbital plane
View from above orbital plane
View from above satellite
View from above satellite

Ground track
Ground track

The orbit data is extracted from the following two-line orbital elements,

1 35865U 09049A   21173.84418089 -.00000006  00000-0  16232-4 0  9990
2 35865  98.4792 151.9594 0002292 162.5431 197.5827 14.22276363610427
Epoch (UTC): 22 June 2021 20:15:37
Eccentricity: 0.0002292
inclination: 98.4792°
perigee height: 816 km
apogee height: 819 km
right ascension of ascending node: 151.9594°
argument of perigee: 162.5431°
revolutions per day: 14.22276363
mean anomaly at epoch: 197.5827°
orbit number at epoch: 61042

The dashed part of the orbit path shows where the satellite is in the earth's shadow,  

DLR